Погода в Амбролаури

Погода в Амбролаури : погода сейчас, прогноз погоды и архив. Всё, что Вы хотите узнать о погоде в Амбролаури!

Поиск расширенной информации на нашем сайте:

Другие новости

Новости СМИ2

Главная страница сайта

Новости сайта

02.10.2013

Напоминаем, что на нашем новом сайте вы можете получить высокодетализированные прогнозы погоды по пунктам России, СНГ и мира (включающие важные для авиации метеовеличины, такие как направление и скорость ветра, видимость, явления погоды, количество и форма облачности, нижняя и верхняя граница облачности), а также ознакомиться с разнообразными материалами по авиационной метеорологии и подборкой полезных ссылок на эту тему.

Сайт Метеоцентр.Азия посвящён разработке технологий оптимизации авиаметеорологического обслуживания, включая проектирование и перспективное создание нескольких автоматизированных авиаметеорологических систем:
- система выпуска высокодетальных прогностических карт явлений погоды для нижнего воздушного пространства по России и ближнему зарубежью;
- система верификации прогнозов TAF (выпускаемых синоптиками официальных АМСГ РФ и ближнего зарубежья) и AUTOTAF (выпускаемых сайтом Метеоцентр.Азия) - выявление ошибок, онлайн-сопоставление с фактической погодой METAR, автоматическое внесение коррективов в прогнозы при резком отклонении фактической погоды от прогноза, подсчёт оправдываемости прогнозов по элементам и в целом;
- система обработки, анализа и отображения авиаметеорологической информации для применения провайдерами метеорологической информации.

Рекомендуем: Гербалайф белковые батончики.

Погода в Амбролаури - сегодня

Время (UTC), дата Ветер
(°,м/с) 
Видим.   Явления Облачность Т
(°С)
Тd
(°С)
f(%) Тe
(°С)
Pmin
(гПа)
dP
(гПа)
Po
(мм)
O2
(г/м3)
Тmin Tmax R s Состояние
почвы
09 23.04.17 140 (ЮВ) 6-6{09}  н/о    н/о 
+17.6 +4 40 +17  1007.9  -2.2  709  268           
12 23.04.17 110 (В) 7-6{08}  н/о    н/о 
+20.1 +4.5 36 +20  1003.9  -3.2  707  264         
18 23.04.17 250 (З) 7-7{07}  н/о    н/о 
+8.1 +5.8 85 +6  1015.6  6.8  713  278    +20.8   
21 23.04.17 280 (З) 7-6{07}  н/о    н/о 
+7 +5 87 +5  1017.8  1.9  714  280         
00 24.04.17 тихо () -0{00}  н/о    н/о 
+5 +4.4 96 +5  1020.2  1.8  716  282       
06 24.04.17 260 (З) 4-4{04}  н/о    н/о 
+7.1 +3.1 76 +6  1020.2  716  281  +4.7     
09 24.04.17 290 (З) 7-7{07}  н/о    н/о 
+11.8 +2.4 52 +10  1018.6  -0.5  716  276           
12 24.04.17 280 (З) 8-8{08}  н/о    н/о 
+14 +1.3 42 +13  1018.2  0.1  716  274         
15 24.04.17 270 (З) 7-6{10}  н/о    н/о 
+11.8 +0.5 46 +10  1019.8  716  277    +14.4       
18 24.04.17 тихо () -0{03}  н/о    н/о 
+8.2 +2.3 66 +8  1023  2.2  718  280    +14.4     
21 24.04.17 240 (ЮЗ) 3-2{02}  н/о    н/о 
+5.5 +2.4 80 +4  1024.6  0.8  719  283           
00 25.04.17 260 (З) 1-1{03}  н/о    н/о 
+3.5 +2.4 92 +4  1026.9  1.8  720  286       
06 25.04.17 300 (СЗ) 4-4{04}  н/о    н/о 
+5.8 +0.2 67 +4  1029.7  722  285  +3.3     
09 25.04.17 290 (З) 6-5{06}  н/о    н/о 
+9.7 +2 59 +8  1030  1.1  723  281           
12 25.04.17 270 (З) 8-8{10}  н/о    н/о 
+10.8 +0.2 48 +9  1029.2  -0.5  723  280         
18 25.04.17 060 (СВ) 1-0{00}  н/о    н/о 
+3 +0.3 82 +4  1033.7  1.6  725  289    +10.9     
21 25.04.17 070 (В) 2-2{03}  н/о    н/о 
+0.8 -1 88 1034.1  -0.2  725  291           
00 26.04.17 070 (В) 2-1{02}  н/о    н/о 
-0.7 -1.9 92 -2  1034.1  -0.3  724  293         
03 26.04.17 120 (ЮВ) 2-1{01}  н/о    н/о 
-0.1 -1.9 88 -1  1034.4  0.3  725  292           
06 26.04.17 090 (В) 6-6{06}  н/о    н/о 
+11.2 -1.7 41 +10  1030.3  -1.2  724  280  -1.4       
09 26.04.17 130 (ЮВ) 12-11{13}  н/о    н/о 
+16.8 -1.7 28 +16  1027.4  -1.5  723  274           
12 26.04.17 140 (ЮВ) 13-13{13}  н/о    н/о 
+17.4 -0.8 29 +16  1026.2  -1.1  722  273         
15 26.04.17 130 (ЮВ) 7-7{10}  н/о    н/о 
+15.7 +0 34 +15  1026.1  -0.5  722  275    +18.1       
18 26.04.17 110 (В) 10-9{09}  н/о    н/о 
+12.6 -0.2 41 +11  1028.7  1.7  723  278    +18.1     
21 26.04.17 090 (В) 6-5{06}  н/о    н/о 
+8.4 +1 60 +7  1030.4  0.6  723  282           
Время (UTC), дата Ветер
(°,м/с) 
Видим.   Явления Облачность Т
(°С)
Тd
(°С)
f(%) Тe
(°С)
Pmin
(гПа)
dP
(гПа)
Po
(мм)
O2
(г/м3)
Тmin Tmax R s Состояние
почвы

Для получения пояснительной информации подведите курсор к названию столбца.

ПОГОДА в Амбролаури - архив

Всё, что Вы хотите узнать о погоде в Амбролаури - удобно и подробно!

Выберите нужную дату (начиная с 1 января 2015* года) и нажмите кнопку "Найти".
Будут отображены архивные сводки погоды по пункту Амбролаури, начиная с указанной даты.


Отображать данные в формате CSV (для использования в таблицах Excel)


Внимание! Наш архив погоды предназначен исключительно для личного некоммерческого использования в познавательных целях. Если Вам необходимы официальные справки о состоянии погоды (для производственных, юридических, коммерческих и т.п. целей), обращайтесь в органы Росгидромета.

*Примечание: данная дата относится к архиву по метеостанциям СССР (Россия, СНГ, Балтия).
Архив по метеостанциям Зарубежной Европы и Азии (кроме Китая) хранится 10 дней, по другим регионам земного шара (Китай, Африка, Америка, Австралия, Океания) - 1 день.

Амбролаури - район местоположения метеостанции


Название, широта, долгота, высота метеостанции:
Амбролаури 42.5°ш. 43.2°д. 544 м над ур. моря [Грузия]

Дополнительная информация

В oтличие oт бoльшинства пoгoдных сайтoв мы публикуем пoдрoбную метеoинфoрмацию в детальнoм прoфессиoнальнoм фoрмате.

Характеристики температуры и влажнoсти вoздуха измеряются на высoте 2 м в тени вдали oт зданий и деревьев.
Скoрoсть ветра измеряется на высoте 10 м (на урoвне рoста челoвека скoрoсть ветра ниже в 1.5-2 раза). Если метеoстанция нахoдится в гoрoде или в лесу, тo скoрoсть ветра занижена на 2-4 м/с пo сравнению с oткрытым местoм. Скoрoсть ветра над акватoриями крупных рек и oзёр, а также на вершинах хoлмoв на 2-5 м/с выше, чем в oбычных услoвиях.
Атмoсфернoе давление в разных тoчках местнoсти мoжет значительнo oтличаться oт давления на метеoстанции, в зависимoсти oт услoвий рельефа (при пoдъёме на 10 м давление пoнижается примернo на 1 мм рт.ст.).